Location: Brahman Valley
(40.6513°N, 111.8855°W)
Time: 09:14:51
(UTC+00:00)

Tiros 1 despin weight - Pass Details

Date: 15 May 2021
Orbit: 594 x 641 km, 48.2° (Epoch: 22 June)

Event Time Altitude Azimuth Distance (km) Brightness Sun altitude
Rises 08:28:37 0° 299° (WNW) 2,944 ? -28.5°
Reaches altitude 10° 08:30:57 10° 298° (WNW) 2,032 ? -28.4°
Enters shadow 08:31:01 10° 298° (WNW) 2,005 ? -28.4°
Maximum altitude 08:35:39 82° 212° (SSW) 648 - -28.1°
Drops below altitude 10° 08:40:17 10° 125° (SE) 2,008 - -27.8°
Sets 08:42:35 0° 124° (SE) 2,907 - -27.6°
